SL-16 DEB

基本信息
目录编号:
22376
目录名称:
SL-16 DEB
国际标识:
1992-093BR
轨道中心:
EARTH
物体状态:
在轨
发射日期:
1992-12-25 UTC
轨道信息
数据来源: 国际轨道数据
星历时间: 2026-09-05T06:05:15+0800
半长轴: 7166.374km
偏心率: 0.0056337
轨道倾角: 70.886°
近地点辐角: 276.877°
升交点赤经: 214.992°
平近点角: 114.223°
近地点: 747.863km
远地点: 828.611km
周期: 100.626分钟
每日圈数: 14.31046
详细信息
发射场:
TTMTR
轨道高度:
LEO
数据来源:
AOE Integration Group
参考系:
TEME
时间系统:
UTC
历元类型:
SGP4
2D轨道图
3D轨道图
轨道高度分析图
轨道倾角分析图
轨道综合分析图
查看轨道综合分析图